Location: ????????
(56.1167°N, 38.6333°E)
Time: 21:20:38
(UTC+00:00)

SAR-Lupe-4 - Pass Details

Date: 18 November 2025
Orbit: 476 x 483 km, 98.1° (Epoch: 03 October)

Event Time Altitude Azimuth Distance (km) Brightness Sun altitude
Rises 14:41:48 0° 166° (SSE) 2,538 7.3 -12.1°
Reaches altitude 10° 14:43:51 10° 168° (SSE) 1,662 6.3 -12.4°
Maximum altitude 14:47:25 76° 254° (WSW) 504 3.7 -12.8°
Drops below altitude 10° 14:51:01 10° 342° (NNW) 1,673 6.3 -13.3°
Sets 14:53:06 0° 344° (NNW) 2,557 7.3 -13.6°
